Year,Month,Day,Hour,Minute,Value (Times are PST for temperature in C)
2015,12,04,00,00,9.70
2015,12,04,00,01,9.70
2015,12,04,00,02,9.70
2015,12,04,00,03,9.70
2015,12,04,00,04,9.70
2015,12,04,00,05,9.70
2015,12,04,00,06,9.80
2015,12,04,00,07,9.80
2015,12,04,00,08,9.80
2015,12,04,00,09,9.80
2015,12,04,00,10,9.80
2015,12,04,00,11,9.80
2015,12,04,00,12,9.80
2015,12,04,00,13,9.80
2015,12,04,00,14,9.80
2015,12,04,00,15,9.80
2015,12,04,00,16,9.80
2015,12,04,00,17,9.80
2015,12,04,00,18,9.80
2015,12,04,00,19,9.80
2015,12,04,00,20,9.80
2015,12,04,00,21,9.80
2015,12,04,00,22,9.80
2015,12,04,00,23,9.80
2015,12,04,00,24,9.80
2015,12,04,00,25,9.80
2015,12,04,00,26,9.80
2015,12,04,00,27,9.80
2015,12,04,00,28,9.80
2015,12,04,00,29,9.80
2015,12,04,00,30,9.80
2015,12,04,00,31,9.80
2015,12,04,00,32,9.80
2015,12,04,00,33,9.70
2015,12,04,00,34,9.70
2015,12,04,00,35,9.70
2015,12,04,00,36,9.70
2015,12,04,00,37,9.70
2015,12,04,00,38,9.70
2015,12,04,00,39,9.70
2015,12,04,00,40,9.70
2015,12,04,00,41,9.70
2015,12,04,00,42,9.70
2015,12,04,00,43,9.70
2015,12,04,00,44,9.70
2015,12,04,00,45,9.70
2015,12,04,00,46,9.70
2015,12,04,00,47,9.70
2015,12,04,00,48,9.70
2015,12,04,00,49,9.60
2015,12,04,00,50,9.70
2015,12,04,00,51,9.70
2015,12,04,00,52,9.70
2015,12,04,00,53,9.70
2015,12,04,00,54,9.70
2015,12,04,00,55,9.80
2015,12,04,00,56,9.80
2015,12,04,00,57,9.90
2015,12,04,00,58,9.90
2015,12,04,00,59,9.90
2015,12,04,01,00,9.90
2015,12,04,01,01,9.90
2015,12,04,01,02,9.90
2015,12,04,01,03,9.90
2015,12,04,01,04,9.90
2015,12,04,01,05,9.90
2015,12,04,01,06,9.90
2015,12,04,01,07,9.80
2015,12,04,01,08,9.80
2015,12,04,01,09,9.80
2015,12,04,01,10,9.80
2015,12,04,01,11,9.70
2015,12,04,01,12,9.70
2015,12,04,01,13,9.70
2015,12,04,01,14,9.70
2015,12,04,01,15,9.70
2015,12,04,01,16,9.70
2015,12,04,01,17,9.60
2015,12,04,01,18,9.60
2015,12,04,01,19,9.60
2015,12,04,01,20,9.60
2015,12,04,01,21,9.60
2015,12,04,01,22,9.60
2015,12,04,01,23,9.50
2015,12,04,01,24,9.50
2015,12,04,01,25,9.40
2015,12,04,01,26,9.40
2015,12,04,01,27,9.40
2015,12,04,01,28,9.40
2015,12,04,01,29,9.50
2015,12,04,01,30,9.50
2015,12,04,01,31,9.50
2015,12,04,01,32,9.60
2015,12,04,01,33,9.60
2015,12,04,01,34,9.60
2015,12,04,01,35,9.60
2015,12,04,01,36,9.60
2015,12,04,01,37,9.60
2015,12,04,01,38,9.50
2015,12,04,01,39,9.40
2015,12,04,01,40,9.40
2015,12,04,01,41,9.40
2015,12,04,01,42,9.40
2015,12,04,01,43,9.40
2015,12,04,01,44,9.40
2015,12,04,01,45,9.40
2015,12,04,01,46,9.40
2015,12,04,01,47,9.40
2015,12,04,01,48,9.40
2015,12,04,01,49,9.40
2015,12,04,01,50,9.40
2015,12,04,01,51,9.40
2015,12,04,01,52,9.40
2015,12,04,01,53,9.40
2015,12,04,01,54,9.40
2015,12,04,01,55,9.40
2015,12,04,01,56,9.40
2015,12,04,01,57,9.40
2015,12,04,01,58,9.40
2015,12,04,01,59,9.40
2015,12,04,02,00,9.40
2015,12,04,02,01,9.40
2015,12,04,02,02,9.40
2015,12,04,02,03,9.40
2015,12,04,02,04,9.40
2015,12,04,02,05,9.40
2015,12,04,02,06,9.40
2015,12,04,02,07,9.40
2015,12,04,02,08,9.40
2015,12,04,02,09,9.40
2015,12,04,02,10,9.40
2015,12,04,02,11,9.40
2015,12,04,02,12,9.40
2015,12,04,02,13,9.40
2015,12,04,02,14,9.50
2015,12,04,02,15,9.50
2015,12,04,02,16,9.50
2015,12,04,02,17,9.50
2015,12,04,02,18,9.50
2015,12,04,02,19,9.50
2015,12,04,02,20,9.50
2015,12,04,02,21,9.50
2015,12,04,02,22,9.50
2015,12,04,02,23,9.50
2015,12,04,02,24,9.50
2015,12,04,02,25,9.50
2015,12,04,02,26,9.50
2015,12,04,02,27,9.50
2015,12,04,02,28,9.50
2015,12,04,02,29,9.50
2015,12,04,02,30,9.50
2015,12,04,02,31,9.50
2015,12,04,02,32,9.50
2015,12,04,02,33,9.50
2015,12,04,02,34,9.50
2015,12,04,02,35,9.50
2015,12,04,02,36,9.40
2015,12,04,02,37,9.40
2015,12,04,02,38,9.40
2015,12,04,02,39,9.40
2015,12,04,02,40,9.40
2015,12,04,02,41,9.40
2015,12,04,02,42,9.40
2015,12,04,02,43,9.40
2015,12,04,02,44,9.40
2015,12,04,02,45,9.40
2015,12,04,02,46,9.40
2015,12,04,02,47,9.40
2015,12,04,02,48,9.40
2015,12,04,02,49,9.40
2015,12,04,02,50,9.40
2015,12,04,02,51,9.40
2015,12,04,02,52,9.30
2015,12,04,02,53,9.30
2015,12,04,02,54,9.30
2015,12,04,02,55,9.30
2015,12,04,02,56,9.30
2015,12,04,02,57,9.30
2015,12,04,02,58,9.30
2015,12,04,02,59,9.30
2015,12,04,03,00,9.30
2015,12,04,03,01,9.30
2015,12,04,03,02,9.30
2015,12,04,03,03,9.30
2015,12,04,03,04,9.30
2015,12,04,03,05,9.30
2015,12,04,03,06,9.30
2015,12,04,03,07,9.30
2015,12,04,03,08,9.30
2015,12,04,03,09,9.30
2015,12,04,03,10,9.30
2015,12,04,03,11,9.30
2015,12,04,03,12,9.30
2015,12,04,03,13,9.30
2015,12,04,03,14,9.30
2015,12,04,03,15,9.30
2015,12,04,03,16,9.30
2015,12,04,03,17,9.30
2015,12,04,03,18,9.30
2015,12,04,03,19,9.30
2015,12,04,03,20,9.30
2015,12,04,03,21,9.30
2015,12,04,03,22,9.30
2015,12,04,03,23,9.30
2015,12,04,03,24,9.30
2015,12,04,03,25,9.30
2015,12,04,03,26,9.20
2015,12,04,03,27,9.20
2015,12,04,03,28,9.20
2015,12,04,03,29,9.20
2015,12,04,03,30,9.20
2015,12,04,03,31,9.30
2015,12,04,03,32,9.20
2015,12,04,03,33,9.30
2015,12,04,03,34,9.20
2015,12,04,03,35,9.20
2015,12,04,03,36,9.30
2015,12,04,03,37,9.30
2015,12,04,03,38,9.30
2015,12,04,03,39,9.30
2015,12,04,03,40,9.30
2015,12,04,03,41,9.30
2015,12,04,03,42,9.20
2015,12,04,03,43,9.20
2015,12,04,03,44,9.20
2015,12,04,03,45,9.20
2015,12,04,03,46,9.20
2015,12,04,03,47,9.20
2015,12,04,03,48,9.20
2015,12,04,03,49,9.20
2015,12,04,03,50,9.10
2015,12,04,03,51,9.10
2015,12,04,03,52,9.10
2015,12,04,03,53,9.10
2015,12,04,03,54,9.10
2015,12,04,03,55,9.00
2015,12,04,03,56,9.00
2015,12,04,03,57,9.00
2015,12,04,03,58,8.90
2015,12,04,03,59,8.90
2015,12,04,04,00,8.90
2015,12,04,04,01,8.90
2015,12,04,04,02,8.90
2015,12,04,04,03,8.90
2015,12,04,04,04,8.90
2015,12,04,04,05,8.90
2015,12,04,04,06,8.90
2015,12,04,04,07,8.80
2015,12,04,04,08,8.80
2015,12,04,04,09,8.80
2015,12,04,04,10,8.80
2015,12,04,04,11,8.80
2015,12,04,04,12,8.80
2015,12,04,04,13,8.80
2015,12,04,04,14,8.80
2015,12,04,04,15,8.80
2015,12,04,04,16,8.80
2015,12,04,04,17,8.80
2015,12,04,04,18,8.80
2015,12,04,04,19,8.80
2015,12,04,04,20,8.80
2015,12,04,04,21,8.80
2015,12,04,04,22,8.80
2015,12,04,04,23,8.80
2015,12,04,04,24,8.80
2015,12,04,04,25,8.80
2015,12,04,04,26,8.80
2015,12,04,04,27,8.80
2015,12,04,04,28,8.70
2015,12,04,04,29,8.70
2015,12,04,04,30,8.70
2015,12,04,04,31,8.70
2015,12,04,04,32,8.70
2015,12,04,04,33,8.70
2015,12,04,04,34,8.70
2015,12,04,04,35,8.70
2015,12,04,04,36,8.70
2015,12,04,04,37,8.70
2015,12,04,04,38,8.80
2015,12,04,04,39,8.80
2015,12,04,04,40,8.80
2015,12,04,04,41,8.80
2015,12,04,04,42,8.80
2015,12,04,04,43,8.80
2015,12,04,04,44,8.80
2015,12,04,04,45,8.80
2015,12,04,04,46,8.80
2015,12,04,04,47,8.80
2015,12,04,04,48,8.80
2015,12,04,04,49,8.80
2015,12,04,04,50,8.80
2015,12,04,04,51,8.80
2015,12,04,04,52,8.80
2015,12,04,04,53,8.80
2015,12,04,04,54,8.80
2015,12,04,04,55,8.80
2015,12,04,04,56,8.80
2015,12,04,04,57,8.80
2015,12,04,04,58,8.80
2015,12,04,04,59,8.80
2015,12,04,05,00,8.80
2015,12,04,05,01,8.80
2015,12,04,05,02,8.80
2015,12,04,05,03,8.80
2015,12,04,05,04,8.80
2015,12,04,05,05,8.80
2015,12,04,05,06,8.80
2015,12,04,05,07,8.80
2015,12,04,05,08,8.80
2015,12,04,05,09,8.80
2015,12,04,05,10,8.80
2015,12,04,05,11,8.80
2015,12,04,05,12,8.80
2015,12,04,05,13,8.80
2015,12,04,05,14,8.80
2015,12,04,05,15,8.80
2015,12,04,05,16,8.80
2015,12,04,05,17,8.80
2015,12,04,05,18,8.80
2015,12,04,05,19,8.80
2015,12,04,05,20,8.80
2015,12,04,05,21,8.80
2015,12,04,05,22,8.80
2015,12,04,05,23,8.80
2015,12,04,05,24,8.80
2015,12,04,05,25,8.80
2015,12,04,05,26,8.80
2015,12,04,05,27,8.80
2015,12,04,05,28,8.80
2015,12,04,05,29,8.80
2015,12,04,05,30,8.80
2015,12,04,05,31,8.80
2015,12,04,05,32,8.80
2015,12,04,05,33,8.80
2015,12,04,05,34,8.80
2015,12,04,05,35,8.80
2015,12,04,05,36,8.80
2015,12,04,05,37,8.80
2015,12,04,05,38,8.80
2015,12,04,05,39,8.80
2015,12,04,05,40,8.80
2015,12,04,05,41,8.80
2015,12,04,05,42,8.80
2015,12,04,05,43,8.80
2015,12,04,05,44,8.80
2015,12,04,05,45,8.80
2015,12,04,05,46,8.90
2015,12,04,05,47,8.90
2015,12,04,05,48,8.90
2015,12,04,05,49,8.90
2015,12,04,05,50,8.90
2015,12,04,05,51,8.90
2015,12,04,05,52,8.90
2015,12,04,05,53,8.90
2015,12,04,05,54,8.90
2015,12,04,05,55,8.90
2015,12,04,05,56,8.90
2015,12,04,05,57,8.90
2015,12,04,05,58,8.90
2015,12,04,05,59,8.90
2015,12,04,06,00,8.90
2015,12,04,06,01,8.90
2015,12,04,06,02,8.90
2015,12,04,06,03,8.90
2015,12,04,06,04,8.90
2015,12,04,06,05,8.90
2015,12,04,06,06,8.90
2015,12,04,06,07,8.90
2015,12,04,06,08,8.90
2015,12,04,06,09,8.90
2015,12,04,06,10,9.00
2015,12,04,06,11,9.00
2015,12,04,06,12,9.00
2015,12,04,06,13,9.00
2015,12,04,06,14,9.00
2015,12,04,06,15,9.00
2015,12,04,06,16,9.00
2015,12,04,06,17,9.00
2015,12,04,06,18,9.00
2015,12,04,06,19,9.00
2015,12,04,06,20,9.00
2015,12,04,06,21,9.00
2015,12,04,06,22,9.00
2015,12,04,06,23,9.00
2015,12,04,06,24,9.00
2015,12,04,06,25,9.00
2015,12,04,06,26,9.00
2015,12,04,06,27,9.00
2015,12,04,06,28,9.00
2015,12,04,06,29,9.00
2015,12,04,06,30,9.00
2015,12,04,06,31,9.00
2015,12,04,06,32,9.10
2015,12,04,06,33,9.10
2015,12,04,06,34,9.10
2015,12,04,06,35,9.00
2015,12,04,06,36,9.00
2015,12,04,06,37,9.00
2015,12,04,06,38,9.00
2015,12,04,06,39,9.00
2015,12,04,06,40,9.00
2015,12,04,06,41,9.00
2015,12,04,06,42,9.00
2015,12,04,06,43,9.00
2015,12,04,06,44,9.00
2015,12,04,06,45,9.00
2015,12,04,06,46,9.00
2015,12,04,06,47,9.00
2015,12,04,06,48,9.00
2015,12,04,06,49,9.00
2015,12,04,06,50,9.10
2015,12,04,06,51,9.00
2015,12,04,06,52,9.00
2015,12,04,06,53,9.00
2015,12,04,06,54,9.00
2015,12,04,06,55,9.00
2015,12,04,06,56,9.00
2015,12,04,06,57,8.90
2015,12,04,06,58,8.90
2015,12,04,06,59,8.90
2015,12,04,07,00,8.90
2015,12,04,07,01,8.90
2015,12,04,07,02,8.90
2015,12,04,07,03,8.90
2015,12,04,07,04,8.90
2015,12,04,07,05,9.00
2015,12,04,07,06,9.00
2015,12,04,07,07,9.00
2015,12,04,07,08,9.00
2015,12,04,07,09,9.10
2015,12,04,07,10,9.10
2015,12,04,07,11,9.10
2015,12,04,07,12,9.00
2015,12,04,07,13,9.00
2015,12,04,07,14,9.00
2015,12,04,07,15,9.10
2015,12,04,07,16,9.10
2015,12,04,07,17,9.10
2015,12,04,07,18,9.00
2015,12,04,07,19,9.00
2015,12,04,07,20,9.00
2015,12,04,07,21,9.00
2015,12,04,07,22,9.00
2015,12,04,07,23,9.00
2015,12,04,07,24,8.90
2015,12,04,07,25,8.90
2015,12,04,07,26,8.90
2015,12,04,07,27,8.90
2015,12,04,07,28,8.90
2015,12,04,07,29,8.90
2015,12,04,07,30,8.90
2015,12,04,07,31,8.90
2015,12,04,07,32,8.90
2015,12,04,07,33,8.90
2015,12,04,07,34,8.90
2015,12,04,07,35,8.90
2015,12,04,07,36,8.80
2015,12,04,07,37,8.80
2015,12,04,07,38,8.80
2015,12,04,07,39,8.80
2015,12,04,07,40,8.80
2015,12,04,07,41,8.90
2015,12,04,07,42,8.90
2015,12,04,07,43,8.90
2015,12,04,07,44,8.90
2015,12,04,07,45,8.90
2015,12,04,07,46,8.90
2015,12,04,07,47,8.90
2015,12,04,07,48,8.90
2015,12,04,07,49,8.90
2015,12,04,07,50,8.90
2015,12,04,07,51,8.90
2015,12,04,07,52,8.90
2015,12,04,07,53,8.90
2015,12,04,07,54,8.90
2015,12,04,07,55,9.00
2015,12,04,07,56,9.00
2015,12,04,07,57,9.00
2015,12,04,07,58,9.00
2015,12,04,07,59,9.00
2015,12,04,08,00,9.00
2015,12,04,08,01,9.00
2015,12,04,08,02,9.00
2015,12,04,08,03,9.00
2015,12,04,08,04,9.00
2015,12,04,08,05,8.90
2015,12,04,08,06,8.90
2015,12,04,08,07,8.90
2015,12,04,08,08,8.90
2015,12,04,08,09,8.90
2015,12,04,08,10,8.90
2015,12,04,08,11,8.90
2015,12,04,08,12,8.90
2015,12,04,08,13,8.90
2015,12,04,08,14,8.90
2015,12,04,08,15,9.00
2015,12,04,08,16,9.00
2015,12,04,08,17,9.00
2015,12,04,08,18,9.00
2015,12,04,08,19,8.90
2015,12,04,08,20,8.90
2015,12,04,08,21,8.90
2015,12,04,08,22,8.90
2015,12,04,08,23,8.90
2015,12,04,08,24,8.90
2015,12,04,08,25,8.90
2015,12,04,08,26,8.90
2015,12,04,08,27,8.90
2015,12,04,08,28,8.90
2015,12,04,08,29,8.90
2015,12,04,08,30,8.90
2015,12,04,08,31,8.90
2015,12,04,08,32,8.90
2015,12,04,08,33,8.90
2015,12,04,08,34,9.00
2015,12,04,08,35,9.00
2015,12,04,08,36,9.00
2015,12,04,08,37,9.00
2015,12,04,08,38,9.10
2015,12,04,08,39,9.10
2015,12,04,08,40,9.10
2015,12,04,08,41,9.10
2015,12,04,08,42,9.00
2015,12,04,08,43,9.00
2015,12,04,08,44,9.00
2015,12,04,08,45,8.90
2015,12,04,08,46,9.00
2015,12,04,08,47,9.00
2015,12,04,08,48,9.00
2015,12,04,08,49,9.00
2015,12,04,08,50,9.00
2015,12,04,08,51,9.00
2015,12,04,08,52,9.00
2015,12,04,08,53,9.00
2015,12,04,08,54,9.00
2015,12,04,08,55,9.00
2015,12,04,08,56,9.00
2015,12,04,08,57,9.00
2015,12,04,08,58,8.90
2015,12,04,08,59,8.90
2015,12,04,09,00,8.90
2015,12,04,09,01,8.90
2015,12,04,09,02,9.00
2015,12,04,09,03,9.00
2015,12,04,09,04,9.00
2015,12,04,09,05,9.00
2015,12,04,09,06,9.00
2015,12,04,09,07,9.00
2015,12,04,09,08,9.00
2015,12,04,09,09,9.00
2015,12,04,09,10,9.00
2015,12,04,09,11,9.00
2015,12,04,09,12,9.00
2015,12,04,09,13,9.00
2015,12,04,09,14,9.00
2015,12,04,09,15,9.00
2015,12,04,09,16,9.00
2015,12,04,09,17,9.00
2015,12,04,09,18,9.00
2015,12,04,09,19,9.00
2015,12,04,09,20,9.00
2015,12,04,09,21,9.00
2015,12,04,09,22,9.00
2015,12,04,09,56,8.90
2015,12,04,09,57,9.00
2015,12,04,09,58,9.00
2015,12,04,09,59,9.00
2015,12,04,10,00,9.00
2015,12,04,10,01,9.00
2015,12,04,10,02,9.00
2015,12,04,10,03,9.00
2015,12,04,10,04,9.00
2015,12,04,10,05,8.90
2015,12,04,10,06,9.00
2015,12,04,10,07,9.00
2015,12,04,10,08,9.00
2015,12,04,10,09,9.00
2015,12,04,10,10,9.00
2015,12,04,10,11,9.00
2015,12,04,10,12,9.00
2015,12,04,10,13,9.00
2015,12,04,10,14,9.00
2015,12,04,10,15,9.00
2015,12,04,10,16,8.90
2015,12,04,10,17,8.90
2015,12,04,10,18,8.80
2015,12,04,10,19,8.80
2015,12,04,10,20,8.70
2015,12,04,10,21,8.60
2015,12,04,10,22,8.50
2015,12,04,10,23,8.50
2015,12,04,10,24,8.50
2015,12,04,10,25,8.50
2015,12,04,10,26,8.60
2015,12,04,10,27,8.50
2015,12,04,10,28,8.50
2015,12,04,10,29,8.50
2015,12,04,10,30,8.40
2015,12,04,10,31,8.40
2015,12,04,10,32,8.40
2015,12,04,10,33,8.40
2015,12,04,10,34,8.30
2015,12,04,10,35,8.30
2015,12,04,10,36,8.30
2015,12,04,10,37,8.30
2015,12,04,10,38,8.30
2015,12,04,10,39,8.30
2015,12,04,10,40,8.30
2015,12,04,10,41,8.30
2015,12,04,10,42,8.30
2015,12,04,10,43,8.30
2015,12,04,10,44,8.30
2015,12,04,10,45,8.30
2015,12,04,10,46,8.30
2015,12,04,10,47,8.30
2015,12,04,10,48,8.30
2015,12,04,10,49,8.30
2015,12,04,10,50,8.30
2015,12,04,10,51,8.40
2015,12,04,10,52,8.40
2015,12,04,10,53,8.40
2015,12,04,10,54,8.40
2015,12,04,10,55,8.40
2015,12,04,10,56,8.40
2015,12,04,10,57,8.40
2015,12,04,10,58,8.40
2015,12,04,10,59,8.50
2015,12,04,11,00,8.50
2015,12,04,11,01,8.50
2015,12,04,11,02,8.50
2015,12,04,11,03,8.50
2015,12,04,11,04,8.60
2015,12,04,11,05,8.60
2015,12,04,11,06,8.60
2015,12,04,11,07,8.70
2015,12,04,11,08,8.70
2015,12,04,11,09,8.70
2015,12,04,11,10,8.70
2015,12,04,11,11,8.70
2015,12,04,11,12,8.70
2015,12,04,11,13,8.70
2015,12,04,11,14,8.70
2015,12,04,11,15,8.70
2015,12,04,11,16,8.70
2015,12,04,11,17,8.70
2015,12,04,11,18,8.70
2015,12,04,11,19,8.70
2015,12,04,11,20,8.70
2015,12,04,11,21,8.70
2015,12,04,11,22,8.80
2015,12,04,11,23,8.80
2015,12,04,11,24,8.70
2015,12,04,11,25,8.70
2015,12,04,11,26,8.70
2015,12,04,11,27,8.70
2015,12,04,11,28,8.70
2015,12,04,11,29,8.60
2015,12,04,11,30,8.60
2015,12,04,11,31,8.60
2015,12,04,11,32,8.50
2015,12,04,11,33,8.50
2015,12,04,11,34,8.50
2015,12,04,11,35,8.50
2015,12,04,11,36,8.50
2015,12,04,11,37,8.60
2015,12,04,11,38,8.60
2015,12,04,11,39,8.60
2015,12,04,11,40,8.60
2015,12,04,11,41,8.60
2015,12,04,11,42,8.60
2015,12,04,11,43,8.60
2015,12,04,11,44,8.60
2015,12,04,11,45,8.60
2015,12,04,11,46,8.60
2015,12,04,11,47,8.50
2015,12,04,11,48,8.50
2015,12,04,11,49,8.50
2015,12,04,11,50,8.50
2015,12,04,11,51,8.60
2015,12,04,11,52,8.60
2015,12,04,11,53,8.60
2015,12,04,11,54,8.60
2015,12,04,11,55,8.60
2015,12,04,11,56,8.60
2015,12,04,11,57,8.60
2015,12,04,11,58,8.60
2015,12,04,11,59,8.50
2015,12,04,12,00,8.50
2015,12,04,12,01,8.50
2015,12,04,12,02,8.60
2015,12,04,12,03,8.60
2015,12,04,12,04,8.60
2015,12,04,12,05,8.60
2015,12,04,12,06,8.50
2015,12,04,12,07,8.50
2015,12,04,12,08,8.50
2015,12,04,12,09,8.50
2015,12,04,12,10,8.50
2015,12,04,12,11,8.50
2015,12,04,12,12,8.50
2015,12,04,12,13,8.40
2015,12,04,12,14,8.40
2015,12,04,12,15,8.40
2015,12,04,12,16,8.40
2015,12,04,12,17,8.40
2015,12,04,12,18,8.40
2015,12,04,12,19,8.40
2015,12,04,12,20,8.40
2015,12,04,12,21,8.40
2015,12,04,12,22,8.40
2015,12,04,12,23,8.40
2015,12,04,12,24,8.40
2015,12,04,12,25,8.50
2015,12,04,12,26,8.50
2015,12,04,12,27,8.40
2015,12,04,12,28,8.40
2015,12,04,12,29,8.40
2015,12,04,12,30,8.40
2015,12,04,12,31,8.30
2015,12,04,12,32,8.30
2015,12,04,12,33,8.30
2015,12,04,12,34,8.30
2015,12,04,12,35,8.30
2015,12,04,12,36,8.30
2015,12,04,12,37,8.30
2015,12,04,12,38,8.30
2015,12,04,12,39,8.30
2015,12,04,12,40,8.30
2015,12,04,12,41,8.30
2015,12,04,12,42,8.30
2015,12,04,12,43,8.30
2015,12,04,12,44,8.30
2015,12,04,12,45,8.30
2015,12,04,12,46,8.30
2015,12,04,12,47,8.30
2015,12,04,12,48,8.30
2015,12,04,12,49,8.40
2015,12,04,12,50,8.30
2015,12,04,12,51,8.30
2015,12,04,12,52,8.30
2015,12,04,12,53,8.30
2015,12,04,12,54,8.30
2015,12,04,12,55,8.30
2015,12,04,12,56,8.30
2015,12,04,12,57,8.30
2015,12,04,12,58,8.30
2015,12,04,12,59,8.30
2015,12,04,13,00,8.30
2015,12,04,13,01,8.30
2015,12,04,13,02,8.30
2015,12,04,13,03,8.30
2015,12,04,13,04,8.30
2015,12,04,13,05,8.30
2015,12,04,13,06,8.30
2015,12,04,13,07,8.30
2015,12,04,13,08,8.30
2015,12,04,13,09,8.30
2015,12,04,13,10,8.30
2015,12,04,13,11,8.30
2015,12,04,13,12,8.30
2015,12,04,13,13,8.30
2015,12,04,13,14,8.30
2015,12,04,13,15,8.30
2015,12,04,13,16,8.30
2015,12,04,13,17,8.30
2015,12,04,13,18,8.30
2015,12,04,13,19,8.30
2015,12,04,13,20,8.30
2015,12,04,13,21,8.30
2015,12,04,13,22,8.30
2015,12,04,13,23,8.30
2015,12,04,13,24,8.30
2015,12,04,13,25,8.30
2015,12,04,13,26,8.30
2015,12,04,13,27,8.30
2015,12,04,13,28,8.30
2015,12,04,13,29,8.30
2015,12,04,13,30,8.30
2015,12,04,13,31,8.30
2015,12,04,13,32,8.30
2015,12,04,13,33,8.30
2015,12,04,13,34,8.30
2015,12,04,13,35,8.30
2015,12,04,13,36,8.30
2015,12,04,13,37,8.30
2015,12,04,13,38,8.30
2015,12,04,13,39,8.30
2015,12,04,13,40,8.30
2015,12,04,13,41,8.30
2015,12,04,13,42,8.30
2015,12,04,13,43,8.30
2015,12,04,13,44,8.30
2015,12,04,13,45,8.30
2015,12,04,14,02,8.40
2015,12,04,14,03,8.40
2015,12,04,14,04,8.40
2015,12,04,14,05,8.50
2015,12,04,14,06,8.50
2015,12,04,14,07,8.50
2015,12,04,14,08,8.50
2015,12,04,14,09,8.50
2015,12,04,14,10,8.50
2015,12,04,14,11,8.50
2015,12,04,14,12,8.50
2015,12,04,14,13,8.50
2015,12,04,14,14,8.50
2015,12,04,14,15,8.50
2015,12,04,14,16,8.50
2015,12,04,14,17,8.60
2015,12,04,14,18,8.60
2015,12,04,14,19,8.60
2015,12,04,14,20,8.60
2015,12,04,14,21,8.70
2015,12,04,14,22,8.70
2015,12,04,14,23,8.70
2015,12,04,14,24,8.70
2015,12,04,14,25,8.70
2015,12,04,14,26,8.70
2015,12,04,14,27,8.80
2015,12,04,14,28,8.80
2015,12,04,14,29,8.80
2015,12,04,14,30,8.80
2015,12,04,14,31,8.80
2015,12,04,14,32,8.80
2015,12,04,14,33,8.80
2015,12,04,14,34,8.80
2015,12,04,14,35,8.90
2015,12,04,14,36,8.90
2015,12,04,14,37,8.90
2015,12,04,14,38,8.90
2015,12,04,14,39,8.90
2015,12,04,14,40,8.90
2015,12,04,14,41,8.90
2015,12,04,14,42,8.90
2015,12,04,14,43,8.90
2015,12,04,14,44,8.90
2015,12,04,14,45,8.90
2015,12,04,14,46,8.90
2015,12,04,14,47,8.90
2015,12,04,14,48,8.90
2015,12,04,14,49,8.90
2015,12,04,14,50,8.90
2015,12,04,14,51,8.90
2015,12,04,14,52,8.90
2015,12,04,14,53,8.90
2015,12,04,14,54,8.90
2015,12,04,14,55,8.90
2015,12,04,14,56,8.90
2015,12,04,14,57,8.90
2015,12,04,14,58,8.90
2015,12,04,14,59,8.90
2015,12,04,15,00,8.90
2015,12,04,15,01,8.90
2015,12,04,15,02,8.90
2015,12,04,15,03,8.90
2015,12,04,15,04,9.00
2015,12,04,15,05,9.00
2015,12,04,15,06,9.00
2015,12,04,15,07,9.00
2015,12,04,15,08,9.00
2015,12,04,15,09,9.10
2015,12,04,15,10,9.10
2015,12,04,15,11,9.10
2015,12,04,15,12,9.10
2015,12,04,15,13,9.10
2015,12,04,15,14,9.10
2015,12,04,15,15,9.10
2015,12,04,15,16,9.10
2015,12,04,15,17,9.10
2015,12,04,15,18,9.10
2015,12,04,15,19,9.10
2015,12,04,15,20,9.20
2015,12,04,15,21,9.20
2015,12,04,15,22,9.20
2015,12,04,15,23,9.20
2015,12,04,15,24,9.20
2015,12,04,15,25,9.20
2015,12,04,15,26,9.20
2015,12,04,15,27,9.20
2015,12,04,15,28,9.20
2015,12,04,15,29,9.20
2015,12,04,15,30,9.20
2015,12,04,15,31,9.20
2015,12,04,15,32,9.20
2015,12,04,15,33,9.20
2015,12,04,15,34,9.20
2015,12,04,15,35,9.20
2015,12,04,15,36,9.20
2015,12,04,15,37,9.20
2015,12,04,15,38,9.20
2015,12,04,15,39,9.20
2015,12,04,15,40,9.20
2015,12,04,15,41,9.20
2015,12,04,15,42,9.20
2015,12,04,15,43,9.20
2015,12,04,15,44,9.20
2015,12,04,15,45,9.20
2015,12,04,15,46,9.20
2015,12,04,15,47,9.20
2015,12,04,15,48,9.20
2015,12,04,15,49,9.20
2015,12,04,15,50,9.20
2015,12,04,15,51,9.20
2015,12,04,15,52,9.20
2015,12,04,15,53,9.20
2015,12,04,15,54,9.20
2015,12,04,15,55,9.20
2015,12,04,15,56,9.20
2015,12,04,15,57,9.20
2015,12,04,15,58,9.20
2015,12,04,15,59,9.20
2015,12,04,16,00,9.20
2015,12,04,16,01,9.20
2015,12,04,16,02,9.20
2015,12,04,16,03,9.20
2015,12,04,16,04,9.20
2015,12,04,16,05,9.20
2015,12,04,16,06,9.30
2015,12,04,16,07,9.30
2015,12,04,16,08,9.30
2015,12,04,16,09,9.30
2015,12,04,16,10,9.30
2015,12,04,16,11,9.30
2015,12,04,16,12,9.30
2015,12,04,16,13,9.30
2015,12,04,16,14,9.30
2015,12,04,16,15,9.30
2015,12,04,16,16,9.30
2015,12,04,16,17,9.30
2015,12,04,16,18,9.40
2015,12,04,16,19,9.40
2015,12,04,16,20,9.40
2015,12,04,16,21,9.40
2015,12,04,16,22,9.40
2015,12,04,16,23,9.40
2015,12,04,16,24,9.40
2015,12,04,16,25,9.40
2015,12,04,16,26,9.40
2015,12,04,16,27,9.40
2015,12,04,16,28,9.40
2015,12,04,16,29,9.30
2015,12,04,16,30,9.30
2015,12,04,16,31,9.30
2015,12,04,16,32,9.30
2015,12,04,16,33,9.30
2015,12,04,16,34,9.30
2015,12,04,16,35,9.30
2015,12,04,16,36,9.30
2015,12,04,16,37,9.30
2015,12,04,16,38,9.40
2015,12,04,16,39,9.40
2015,12,04,16,40,9.40
2015,12,04,16,41,9.40
2015,12,04,16,42,9.40
2015,12,04,16,43,9.40
2015,12,04,16,44,9.40
2015,12,04,16,45,9.50
2015,12,04,16,46,9.50
2015,12,04,16,47,9.50
2015,12,04,16,48,9.50
2015,12,04,16,49,9.50
2015,12,04,16,50,9.50
2015,12,04,16,51,9.50
2015,12,04,16,52,9.50
2015,12,04,16,53,9.50
2015,12,04,16,54,9.50
2015,12,04,16,55,9.50
2015,12,04,16,56,9.50
2015,12,04,16,57,9.50
2015,12,04,16,58,9.50
2015,12,04,16,59,9.50
2015,12,04,17,00,9.50
2015,12,04,17,01,9.50
2015,12,04,17,02,9.60
2015,12,04,17,03,9.50
2015,12,04,17,04,9.50
2015,12,04,17,05,9.50
2015,12,04,17,06,9.60
2015,12,04,17,07,9.60
2015,12,04,17,08,9.60
2015,12,04,17,09,9.60
2015,12,04,17,10,9.60
2015,12,04,17,11,9.60
2015,12,04,17,12,9.60
2015,12,04,17,13,9.60
2015,12,04,17,14,9.60
2015,12,04,17,15,9.60
2015,12,04,17,16,9.60
2015,12,04,17,17,9.60
2015,12,04,17,18,9.60
2015,12,04,17,19,9.50
2015,12,04,17,20,9.50
2015,12,04,17,21,9.50
2015,12,04,17,22,9.50
2015,12,04,17,23,9.50
2015,12,04,17,24,9.50
2015,12,04,17,25,9.50
2015,12,04,17,26,9.50
2015,12,04,17,27,9.50
2015,12,04,17,28,9.40
2015,12,04,17,29,9.40
2015,12,04,17,30,9.40
2015,12,04,17,31,9.40
2015,12,04,17,32,9.50
2015,12,04,17,33,9.40
2015,12,04,17,34,9.40
2015,12,04,17,35,9.40
2015,12,04,17,36,9.40
2015,12,04,17,37,9.40
2015,12,04,17,38,9.40
2015,12,04,17,39,9.40
2015,12,04,17,40,9.40
2015,12,04,17,41,9.40
2015,12,04,17,42,9.40
2015,12,04,17,43,9.40
2015,12,04,17,44,9.40
2015,12,04,17,45,9.40
2015,12,04,17,46,9.40
2015,12,04,17,47,9.40
2015,12,04,17,48,9.40
2015,12,04,17,49,9.40
2015,12,04,17,50,9.40
2015,12,04,17,51,9.40
2015,12,04,17,52,9.30
2015,12,04,17,53,9.30
2015,12,04,17,54,9.30
2015,12,04,17,55,9.30
2015,12,04,17,56,9.30
2015,12,04,17,57,9.30
2015,12,04,17,58,9.30
2015,12,04,17,59,9.30
2015,12,04,18,00,9.30
2015,12,04,18,01,9.30
2015,12,04,18,02,9.30
2015,12,04,18,03,9.30
2015,12,04,18,04,9.30
2015,12,04,18,05,9.30
2015,12,04,18,06,9.30
2015,12,04,18,07,9.30
2015,12,04,18,08,9.30
2015,12,04,18,09,9.30
2015,12,04,18,10,9.30
2015,12,04,18,11,9.20
2015,12,04,18,12,9.20
2015,12,04,18,13,9.20
2015,12,04,18,14,9.20
2015,12,04,18,15,9.10
2015,12,04,18,16,9.10
2015,12,04,18,17,9.10
2015,12,04,18,18,9.10
2015,12,04,18,19,9.10
2015,12,04,18,20,9.00
2015,12,04,18,21,9.00
2015,12,04,18,22,9.00
2015,12,04,18,23,9.00
2015,12,04,18,24,9.00
2015,12,04,18,25,9.00
2015,12,04,18,26,9.00
2015,12,04,18,27,9.00
2015,12,04,18,28,9.10
2015,12,04,18,29,9.10
2015,12,04,18,30,9.10
2015,12,04,18,31,9.10
2015,12,04,18,32,9.10
2015,12,04,18,33,9.10
2015,12,04,18,34,9.00
2015,12,04,18,35,9.00
2015,12,04,18,36,9.00
2015,12,04,18,37,9.00
2015,12,04,18,38,9.00
2015,12,04,18,39,9.00
2015,12,04,18,40,9.00
2015,12,04,18,41,9.00
2015,12,04,18,42,9.00
2015,12,04,18,43,9.00
2015,12,04,18,44,9.00
2015,12,04,18,45,9.00
2015,12,04,18,46,9.00
2015,12,04,18,47,9.00
2015,12,04,18,48,9.00
2015,12,04,18,49,9.00
2015,12,04,18,50,8.90
2015,12,04,18,51,8.90
2015,12,04,18,52,8.90
2015,12,04,18,53,8.90
2015,12,04,18,54,8.80
2015,12,04,18,55,8.80